GFSNIL_sfc_thetae_120.txt.gz
Theta_e
309 309 310 312 313 317 318 320 322 325 328 329 329 327 328 328 326 327 327 326 325 324
309 310 310 310 311 313 314 319 319 320 323 323 324 325 325 324 325 326 323 323 323 323
304 305 305 305 304 305 307 308 310 311 311 311 311 316 317 314 314 317 314 314 316 321
300 300 300 300 300 300 300 302 303 304 304 304 304 305 306 307 307 307 306 306 307 306
296 296 295 295 295 296 295 296 298 300 299 299 299 300 301 301 303 302 302 302 303 303
293 293 293 293 293 294 293 293 293 295 294 294 295 295 296 298 298 299 300 301 301 301
291 292 292 292 293 293 293 292 291 291 292 292 293 293 293 294 295 294 295 296 297 296
291 292 291 291 291 291 292 291 291 290 290 291 291 292 292 292 294 293 293 294 294 294
290 290 290 289 289 289 289 289 289 288 289 289 290 292 293 292 291 291 291 290 290 290
289 289 289 289 289 288 288 288 287 287 287 287 288 291 292 292 289 289 288 288 288 288
286 287 287 287 286 286 286 286 286 286 286 286 288 290 291 291 288 288 288 287 287 286
286 285 286 285 284 284 284 284 284 285 285 284 285 289 290 288 286 286 286 287 287 286
285 284 284 284 283 284 283 283 283 284 283 286 283 289 289 288 286 284 285 286 286 290
284 283 282 282 282 282 282 282 282 282 282 283 284 284 289 289 287 286 285 285 285 286

GFSNIL_sfc_thetae_123.txt.gz
Theta_e
307 306 307 310 310 311 312 314 317 320 321 324 325 326 327 327 326 326 326 324 323 324
306 306 306 306 308 308 309 312 313 312 312 315 317 320 323 323 324 324 323 321 321 320
301 302 302 301 301 302 304 305 306 307 307 307 308 310 312 311 312 311 310 310 310 309
296 296 296 296 297 297 299 301 301 301 301 302 301 303 304 304 304 304 304 305 304 304
294 294 294 293 294 294 293 295 296 296 296 296 296 297 298 298 300 300 300 300 301 298
292 291 291 292 293 293 292 291 292 292 292 293 293 294 295 295 294 295 296 297 296 295
291 291 291 291 290 292 291 291 290 291 291 291 292 292 292 294 293 293 294 294 294 294
290 291 290 290 289 290 290 290 290 290 290 291 291 292 291 292 291 292 292 292 292 292
289 288 288 289 288 288 288 288 288 287 288 288 290 292 293 291 290 290 289 288 289 290
287 287 288 288 287 286 286 287 286 286 287 287 288 291 292 291 290 289 288 287 287 287
285 285 286 286 284 284 285 285 285 285 285 285 288 291 291 290 287 287 286 287 286 286
284 283 283 283 283 283 283 283 284 284 284 283 284 290 290 288 286 285 285 286 286 286
283 282 281 281 281 282 282 282 283 283 283 286 282 289 290 288 284 283 284 285 286 289
282 281 280 279 280 280 279 280 280 280 281 281 283 284 289 290 286 285 283 283 283 284

GFSNIL_sfc_thetae_126.txt.gz
Theta_e
305 306 306 307 308 308 309 311 312 313 313 315 318 320 322 323 325 326 327 327 326 325
299 300 301 302 303 305 305 307 308 309 309 310 311 315 321 319 319 320 314 313 320 319
295 296 296 296 296 297 300 301 302 302 303 303 305 307 308 309 308 308 308 308 308 307
293 294 294 294 293 293 294 295 296 297 297 298 298 301 302 303 303 303 303 302 301 299
293 292 292 292 292 293 292 292 294 294 294 294 295 296 296 297 297 298 298 297 296 297
292 292 291 290 291 291 291 291 291 291 292 292 292 292 294 294 294 294 294 294 294 295
289 290 290 290 290 290 290 289 290 290 291 291 292 291 292 293 293 293 292 293 292 292
287 288 288 288 289 289 289 288 289 289 289 290 291 292 291 292 291 291 290 291 291 291
286 286 286 287 288 288 287 287 287 288 287 288 291 293 293 291 289 289 288 288 288 289
285 285 285 285 284 284 284 286 285 285 287 287 288 292 291 291 289 287 286 286 286 286
283 283 283 283 282 282 282 282 283 283 284 285 288 291 291 290 286 286 286 286 286 285
282 282 282 281 280 280 280 280 281 282 282 282 284 290 290 287 285 285 284 285 286 286
282 281 280 279 279 280 279 280 280 281 282 285 281 289 290 286 284 282 283 283 284 288
281 280 279 278 278 278 278 278 278 279 279 280 282 284 290 290 285 284 283 283 283 284

GFSNIL_sfc_thetae_129.txt.gz
Theta_e
298 300 300 300 301 303 304 306 308 309 310 312 313 313 315 318 320 321 321 321 324 325
295 296 296 296 297 297 299 301 301 302 303 303 306 308 311 314 318 316 314 312 311 315
294 294 294 294 293 293 294 296 296 296 297 298 299 302 305 306 307 307 307 306 305 304
292 293 292 293 293 293 293 293 293 294 294 294 296 296 298 299 301 300 298 299 300 298
291 292 291 291 292 292 292 292 292 293 293 293 293 295 295 295 296 295 295 297 297 296
288 288 288 289 291 291 290 291 291 291 291 291 292 292 293 294 293 293 293 294 293 294
285 285 286 287 288 289 289 289 289 290 290 291 292 291 292 292 292 292 292 292 292 292
285 285 285 285 286 287 287 287 288 288 289 290 291 292 290 290 290 289 290 291 290 291
285 284 284 284 284 285 285 285 286 287 287 287 290 292 292 290 289 288 288 288 289 289
284 283 283 283 282 282 281 282 282 283 284 286 288 291 291 290 287 286 285 285 285 285
282 282 282 281 280 280 280 280 280 281 282 283 287 290 290 289 286 286 286 286 285 285
282 281 280 280 279 279 278 278 279 280 280 280 282 290 289 286 284 284 284 285 286 286
282 281 279 279 278 278 278 279 279 280 280 284 280 288 291 287 283 282 283 283 284 288
280 280 278 278 278 277 277 277 277 279 278 279 282 283 289 289 283 284 281 281 281 283

GFSNIL_sfc_thetae_135.txt.gz
Theta_e
296 296 295 296 296 296 296 298 299 299 299 300 301 302 305 307 308 309 310 313 316 316
295 294 294 294 295 295 295 296 297 296 296 297 298 299 301 302 302 302 302 302 304 306
294 293 293 293 293 293 294 295 295 295 295 295 295 296 298 298 299 300 299 300 300 299
293 292 292 292 292 292 292 292 293 293 293 293 293 294 295 295 296 296 296 296 295 295
290 290 289 289 289 290 289 291 291 291 292 293 293 293 293 293 294 293 293 293 292 292
288 288 287 288 288 288 288 288 289 290 291 292 293 291 292 291 291 291 291 292 291 291
287 287 287 287 287 287 287 287 288 288 289 290 291 291 290 290 290 290 291 292 292 291
287 287 287 286 286 286 286 286 287 287 289 290 291 291 289 289 289 289 289 290 290 291
287 286 286 285 284 284 284 285 285 286 287 288 290 292 291 289 288 288 287 287 288 289
286 285 285 284 283 283 283 283 283 284 285 286 288 291 290 289 287 287 287 287 287 287
284 284 284 283 283 282 282 282 283 283 283 285 287 290 290 288 286 286 286 286 287 288
284 284 283 282 282 282 281 282 282 283 283 283 285 290 289 287 286 285 285 285 285 287
284 284 283 282 282 281 281 281 282 282 282 284 284 287 288 287 285 284 284 284 284 286
284 283 282 281 281 281 280 280 281 281 282 282 284 285 288 288 285 285 283 283 283 285

GFSNIL_sfc_thetae_138.txt.gz
Theta_e
301 302 301 300 301 300 300 301 302 301 301 302 303 304 304 304 303 305 306 304 304 305
300 300 300 300 300 300 300 299 300 300 300 300 300 302 302 300 300 302 301 301 300 299
299 299 299 299 298 297 297 297 298 298 299 298 298 298 299 300 298 299 301 300 296 295
297 296 296 295 294 294 294 294 294 294 295 296 297 297 298 298 298 298 297 298 296 294
294 293 293 292 292 292 292 293 293 293 294 294 295 294 295 295 295 294 294 295 295 294
293 292 292 292 292 291 291 291 292 292 292 292 293 293 293 294 293 293 294 294 293 293
292 292 292 292 291 291 290 290 290 291 292 293 293 293 292 292 292 292 292 293 293 292
293 292 291 291 290 289 289 289 290 290 291 292 292 292 291 291 291 291 290 292 292 292
292 291 290 290 289 288 288 288 289 289 290 291 291 291 291 290 290 290 289 290 291 291
291 290 290 289 288 287 287 288 288 288 290 290 291 291 290 289 290 290 289 289 290 289
291 289 289 288 287 287 287 287 288 287 288 290 290 290 289 288 289 289 288 288 288 289
288 286 287 287 287 287 286 286 287 287 287 287 289 289 289 288 288 287 287 287 287 288
287 286 286 287 286 287 286 286 286 286 287 286 287 288 289 288 288 286 286 287 287 286
287 286 286 285 285 286 285 285 285 285 286 286 287 288 288 288 288 287 286 285 285 287

GFSNIL_sfc_thetae_144.txt.gz
Theta_e
298 297 296 296 296 295 296 296 297 297 298 298 298 298 298 301 300 301 302 301 300 300
297 296 296 295 295 295 294 295 293 293 293 294 295 295 296 296 296 298 299 298 299 297
297 296 295 294 292 291 291 291 291 291 291 292 293 292 292 293 295 294 296 295 293 293
296 295 294 292 291 290 290 290 290 290 291 291 291 292 290 291 292 292 292 292 291 291
297 294 291 290 290 290 289 289 289 289 290 290 291 291 289 289 290 290 290 290 289 289
295 292 290 289 290 289 288 287 287 288 288 289 290 290 289 289 289 289 289 289 288 288
294 292 290 290 289 289 288 287 286 287 288 289 290 290 289 289 288 287 288 289 289 288
295 293 291 290 289 289 287 287 287 287 287 289 289 290 288 288 287 287 287 288 289 288
294 293 290 290 289 288 287 286 286 286 288 288 291 291 291 289 286 287 287 286 286 287
295 293 290 290 289 288 287 287 285 285 287 287 288 291 290 289 287 286 285 285 284 285
294 292 290 289 288 288 286 285 285 285 286 287 289 291 290 289 286 285 284 284 283 283
293 290 288 287 286 287 285 284 285 286 285 285 286 292 291 288 285 284 283 284 284 283
294 290 288 287 286 287 285 285 284 285 285 287 284 291 290 289 285 282 283 283 284 287
293 289 287 286 287 286 285 284 284 283 284 284 285 285 291 290 285 284 282 282 281 283

GFSNIL_sfc_thetae_147.txt.gz
Theta_e
297 296 295 295 294 294 294 294 293 293 293 293 295 295 295 297 297 298 300 299 297 297
297 295 295 295 294 293 293 293 290 290 290 291 292 292 292 293 294 294 297 294 293 293
297 296 295 294 292 291 290 290 290 289 289 290 291 290 290 290 292 292 292 292 291 290
296 295 294 292 291 289 289 289 289 289 289 289 289 290 288 289 290 290 289 289 288 288
297 295 292 291 290 290 289 289 289 289 289 289 290 290 288 288 288 288 288 288 287 287
296 294 291 290 289 289 288 287 287 287 288 289 289 288 288 287 287 287 288 288 287 286
296 294 291 290 289 289 288 287 286 286 287 289 289 289 288 288 287 286 286 288 287 287
297 294 292 290 289 288 287 287 286 286 286 287 288 289 287 287 286 286 285 286 287 287
296 294 292 290 288 287 286 287 287 287 286 288 290 293 292 288 285 286 285 284 284 285
295 294 292 290 289 288 287 287 286 286 286 287 288 293 292 290 286 285 284 284 283 284
294 294 292 289 288 286 286 287 286 286 286 287 288 293 292 290 286 284 284 284 283 282
294 292 290 288 287 287 285 285 286 286 286 286 286 293 292 290 285 284 284 284 284 283
293 292 290 289 287 287 286 285 286 286 286 288 285 291 293 291 285 283 283 283 284 287
293 291 290 287 285 284 283 284 284 284 285 285 287 286 292 292 286 284 283 283 282 282

GFSNIL_sfc_thetae_150.txt.gz
Theta_e
298 296 295 294 294 293 293 293 293 291 290 291 292 292 292 295 295 295 299 297 294 293
297 295 294 294 294 293 293 293 290 289 289 290 291 291 291 291 291 292 293 291 291 291
297 296 294 293 292 292 291 290 289 289 289 289 290 290 289 289 291 290 290 290 288 288
296 296 294 293 292 291 289 289 289 289 289 289 289 289 288 288 289 289 288 288 287 287
297 295 294 292 291 290 288 288 288 288 288 288 289 289 287 287 287 288 287 287 286 286
296 295 293 292 291 289 288 287 287 287 287 288 288 288 287 287 287 287 287 287 286 286
296 295 295 293 290 289 288 286 286 286 287 288 289 289 288 288 287 286 286 287 287 286
298 296 294 292 290 289 287 287 286 286 287 288 288 289 287 287 286 285 285 286 287 287
297 295 294 293 290 288 287 286 286 287 287 288 289 292 293 288 286 286 286 285 284 285
296 295 294 292 290 288 287 286 285 285 286 287 288 293 294 293 286 285 285 285 285 284
294 294 293 291 289 288 286 286 285 285 285 286 287 293 294 293 286 285 285 285 284 283
293 292 292 290 289 288 286 285 285 285 285 286 287 292 294 292 286 285 284 285 284 283
292 292 291 290 289 287 286 286 285 285 285 288 286 291 293 292 287 284 284 284 284 288
291 290 290 289 287 285 284 284 282 283 283 285 287 286 290 292 287 285 284 283 282 283

GFSNIL_sfc_thetae_153.txt.gz
Theta_e
298 297 296 295 293 293 292 293 293 291 290 289 291 291 290 293 293 294 294 293 293 291
297 296 295 294 293 293 292 294 292 289 288 289 290 290 289 290 291 291 291 290 290 289
297 297 295 294 293 292 292 291 289 288 288 288 289 289 288 288 290 290 290 289 287 288
297 296 295 294 293 292 291 290 288 288 288 288 288 288 287 287 289 289 288 287 287 286
297 296 295 294 293 292 290 289 288 288 287 287 288 288 287 286 288 287 287 287 286 286
296 295 294 294 293 291 289 288 287 287 286 286 287 287 287 286 287 286 287 287 286 285
296 295 294 294 293 291 289 287 286 285 286 286 287 289 287 286 286 285 286 287 286 285
296 295 294 294 293 291 289 288 286 285 285 286 288 289 287 287 286 285 284 286 287 287
295 295 295 294 293 291 289 288 286 286 286 285 287 292 294 290 286 286 285 285 284 285
293 294 294 294 292 291 289 287 286 286 286 286 286 292 294 295 286 285 286 285 285 284
292 292 292 292 291 290 288 287 287 286 286 286 286 292 294 295 286 286 285 285 285 283
291 290 290 290 290 290 287 286 286 285 285 284 285 292 293 294 285 285 285 286 285 284
290 290 289 289 290 289 287 286 285 285 284 286 284 291 293 294 286 286 285 285 284 288
289 287 288 287 287 286 285 284 283 282 282 282 285 287 292 294 289 287 285 284 283 284

GFSNIL_sfc_thetae_156.txt.gz
Theta_e
298 297 296 296 294 293 292 292 293 292 290 289 289 290 289 291 292 292 292 291 291 290
297 296 297 296 294 293 293 294 292 291 288 288 288 289 288 288 290 290 290 289 289 289
298 297 297 295 294 293 293 292 291 289 287 287 288 288 288 287 289 289 289 289 287 287
296 296 295 295 294 293 292 292 290 289 288 287 287 287 287 286 288 288 288 287 287 286
296 295 294 294 294 293 292 291 290 289 287 287 287 287 287 286 287 287 286 286 285 285
294 294 294 294 294 293 292 290 289 288 287 286 287 286 287 287 286 286 287 287 286 285
292 293 294 294 293 293 291 290 288 287 287 287 286 287 287 288 286 285 286 287 286 286
291 292 293 293 293 292 291 290 289 287 286 286 286 287 287 287 286 287 286 287 286 287
291 291 292 293 292 291 291 289 288 287 287 285 287 290 293 290 286 286 286 284 285 286
290 290 291 292 292 291 290 289 288 287 286 286 286 292 293 294 287 285 285 284 285 285
290 290 290 290 290 290 289 289 288 287 286 286 287 292 294 294 287 284 284 285 285 285
288 288 288 287 288 288 288 287 287 286 286 284 286 291 293 293 286 285 285 285 285 285
288 287 286 286 287 287 286 287 286 286 284 286 284 289 292 293 288 284 285 286 286 289
287 286 286 285 285 285 284 283 283 283 282 282 283 283 291 293 288 287 286 286 285 285